contact:dominique.lefevre@mio.osupytheas.fr, maurice.libes@osupytheas.fr, didier.mallarino@osupytheas.fr
Project:EMSO http://www.emso-fr.org/EMSO-France
Depth: 2436.0 m
Title:EMSO Ligure Ouest : Data MII capteur MICROCAT
DateTime_Computer,Latitude,Longitude,Temperature,Conductivity,Pressure,DateTime_Instrument
DateTime_Computer,Latitude,Longitude,degC,S m-1,dbar,DateTime_Instrument
2019-11-13T00:01:21Z,42.805,6.029,13.2967,4.59964,2469.783,2019-11-13T02:01:48Z
2019-11-13T00:04:24Z,42.805,6.029,13.2966,4.59963,2469.797,2019-11-13T02:04:51Z
2019-11-13T00:07:27Z,42.805,6.029,13.2962,4.59964,2469.797,2019-11-13T02:07:55Z
2019-11-13T00:10:30Z,42.805,6.029,13.2966,4.59965,2469.797,2019-11-13T02:10:58Z
2019-11-13T00:13:33Z,42.805,6.029,13.2963,4.59964,2469.797,2019-11-13T02:14:01Z
2019-11-13T00:16:37Z,42.805,6.029,13.2964,4.59964,2469.773,2019-11-13T02:17:04Z
2019-11-13T00:19:40Z,42.805,6.029,13.2961,4.59965,2469.797,2019-11-13T02:20:08Z
2019-11-13T00:22:43Z,42.805,6.029,13.2966,4.59964,2469.773,2019-11-13T02:23:11Z
2019-11-13T00:25:46Z,42.805,6.029,13.2965,4.59966,2469.76,2019-11-13T02:26:14Z
2019-11-13T00:28:50Z,42.805,6.029,13.2964,4.59966,2469.76,2019-11-13T02:29:17Z
2019-11-13T00:31:53Z,42.805,6.029,13.2964,4.59973,2469.76,2019-11-13T02:32:20Z
2019-11-13T00:34:56Z,42.805,6.029,13.2963,4.59964,2469.773,2019-11-13T02:35:24Z
2019-11-13T00:37:59Z,42.805,6.029,13.2963,4.59964,2469.783,2019-11-13T02:38:27Z
2019-11-13T00:41:03Z,42.805,6.029,13.2964,4.59967,2469.76,2019-11-13T02:41:30Z
2019-11-13T00:44:06Z,42.805,6.029,13.2961,4.59964,2469.75,2019-11-13T02:44:34Z
2019-11-13T00:47:09Z,42.805,6.029,13.2964,4.59967,2469.76,2019-11-13T02:47:37Z
2019-11-13T00:50:12Z,42.805,6.029,13.2963,4.59966,2469.75,2019-11-13T02:50:40Z
2019-11-13T00:53:16Z,42.805,6.029,13.2964,4.59967,2469.75,2019-11-13T02:53:43Z
2019-11-13T00:56:19Z,42.805,6.029,13.2964,4.59966,2469.76,2019-11-13T02:56:47Z
2019-11-13T00:59:22Z,42.805,6.029,13.2965,4.59966,2469.76,2019-11-13T02:59:50Z
2019-11-13T01:02:26Z,42.805,6.029,13.2966,4.59967,2469.773,2019-11-13T03:02:53Z
2019-11-13T01:05:29Z,42.805,6.029,13.2960,4.59964,2469.75,2019-11-13T03:05:56Z
2019-11-13T01:08:32Z,42.805,6.029,13.2964,4.59963,2469.737,2019-11-13T03:09:00Z
2019-11-13T01:11:35Z,42.805,6.029,13.2961,4.59964,2469.737,2019-11-13T03:12:03Z
2019-11-13T01:14:38Z,42.805,6.029,13.2966,4.59963,2469.737,2019-11-13T03:15:06Z
2019-11-13T01:17:42Z,42.805,6.029,13.2967,4.59963,2469.773,2019-11-13T03:18:09Z
2019-11-13T01:20:45Z,42.805,6.029,13.2964,4.59964,2469.76,2019-11-13T03:21:13Z
2019-11-13T01:23:48Z,42.805,6.029,13.2962,4.59964,2469.737,2019-11-13T03:24:16Z
2019-11-13T01:26:51Z,42.805,6.029,13.2962,4.59964,2469.76,2019-11-13T03:27:19Z
2019-11-13T01:29:55Z,42.805,6.029,13.2964,4.59966,2469.737,2019-11-13T03:30:22Z
2019-11-13T01:32:58Z,42.805,6.029,13.2966,4.59963,2469.773,2019-11-13T03:33:25Z
2019-11-13T01:36:01Z,42.805,6.029,13.2963,4.59966,2469.75,2019-11-13T03:36:29Z
2019-11-13T01:39:05Z,42.805,6.029,13.2964,4.59964,2469.76,2019-11-13T03:39:32Z
2019-11-13T01:42:08Z,42.805,6.029,13.2964,4.59963,2469.773,2019-11-13T03:42:35Z
2019-11-13T01:45:11Z,42.805,6.029,13.2964,4.59964,2469.75,2019-11-13T03:45:39Z
2019-11-13T01:48:14Z,42.805,6.029,13.2965,4.59963,2469.713,2019-11-13T03:48:42Z
2019-11-13T01:51:17Z,42.805,6.029,13.2961,4.59962,2469.713,2019-11-13T03:51:45Z
2019-11-13T01:54:21Z,42.805,6.029,13.2964,4.59963,2469.76,2019-11-13T03:54:48Z
2019-11-13T01:57:24Z,42.805,6.029,13.2961,4.59964,2469.699,2019-11-13T03:57:51Z
2019-11-13T02:00:27Z,42.805,6.029,13.2964,4.59964,2469.773,2019-11-13T04:00:55Z
2019-11-13T02:03:30Z,42.805,6.029,13.2960,4.59963,2469.76,2019-11-13T04:03:58Z
2019-11-13T02:06:34Z,42.805,6.029,13.2961,4.59963,2469.773,2019-11-13T04:07:01Z
2019-11-13T02:09:37Z,42.805,6.029,13.2965,4.59963,2469.773,2019-11-13T04:10:04Z
2019-11-13T02:12:40Z,42.805,6.029,13.2962,4.59962,2469.727,2019-11-13T04:13:08Z
2019-11-13T02:15:43Z,42.805,6.029,13.2964,4.59964,2469.764,2019-11-13T04:16:11Z
2019-11-13T02:18:46Z,42.805,6.029,13.2964,4.59963,2469.76,2019-11-13T04:19:14Z
2019-11-13T02:21:50Z,42.805,6.029,13.2969,4.59963,2469.75,2019-11-13T04:22:17Z
2019-11-13T02:24:53Z,42.805,6.029,13.2961,4.59961,2469.75,2019-11-13T04:25:21Z
2019-11-13T02:27:56Z,42.805,6.029,13.2967,4.59963,2469.737,2019-11-13T04:28:24Z
2019-11-13T02:30:59Z,42.805,6.029,13.2964,4.59964,2469.737,2019-11-13T04:31:27Z
2019-11-13T02:34:03Z,42.805,6.029,13.2966,4.59963,2469.773,2019-11-13T04:34:30Z
2019-11-13T02:37:06Z,42.805,6.029,13.2964,4.59964,2469.75,2019-11-13T04:37:33Z
2019-11-13T02:40:09Z,42.805,6.029,13.2964,4.59963,2469.75,2019-11-13T04:40:37Z
2019-11-13T02:43:12Z,42.805,6.029,13.2963,4.59963,2469.75,2019-11-13T04:43:40Z
2019-11-13T02:46:16Z,42.805,6.029,13.2961,4.59962,2469.713,2019-11-13T04:46:43Z
2019-11-13T02:49:19Z,42.805,6.029,13.2964,4.59964,2469.75,2019-11-13T04:49:46Z
2019-11-13T02:52:22Z,42.805,6.029,13.2963,4.59963,2469.783,2019-11-13T04:52:50Z
2019-11-13T02:55:25Z,42.805,6.029,13.2967,4.59962,2469.737,2019-11-13T04:55:53Z
2019-11-13T02:58:29Z,42.805,6.029,13.2965,4.59962,2469.75,2019-11-13T04:58:56Z
2019-11-13T03:01:32Z,42.805,6.029,13.2965,4.59965,2469.76,2019-11-13T05:01:59Z
2019-11-13T03:04:35Z,42.805,6.029,13.2965,4.59963,2469.773,2019-11-13T05:05:03Z
2019-11-13T03:07:38Z,42.805,6.029,13.2964,4.59962,2469.737,2019-11-13T05:08:06Z
2019-11-13T03:10:41Z,42.805,6.029,13.2963,4.59964,2469.737,2019-11-13T05:11:09Z
2019-11-13T03:13:45Z,42.805,6.029,13.2961,4.59963,2469.783,2019-11-13T05:14:12Z
2019-11-13T03:16:48Z,42.805,6.029,13.2968,4.59963,2469.773,2019-11-13T05:17:15Z
2019-11-13T03:19:51Z,42.805,6.029,13.2967,4.59966,2469.76,2019-11-13T05:20:19Z
2019-11-13T03:22:54Z,42.805,6.029,13.2964,4.59964,2469.773,2019-11-13T05:23:22Z
2019-11-13T03:25:58Z,42.805,6.029,13.2961,4.59962,2469.76,2019-11-13T05:26:25Z
2019-11-13T03:29:01Z,42.805,6.029,13.2964,4.59963,2469.76,2019-11-13T05:29:29Z
2019-11-13T03:32:04Z,42.805,6.029,13.2963,4.59963,2469.783,2019-11-13T05:32:32Z
2019-11-13T03:35:08Z,42.805,6.029,13.2966,4.59962,2469.797,2019-11-13T05:35:35Z
2019-11-13T03:38:11Z,42.805,6.029,13.2963,4.59963,2469.797,2019-11-13T05:38:39Z
2019-11-13T03:41:14Z,42.805,6.029,13.2966,4.59964,2469.76,2019-11-13T05:41:42Z
2019-11-13T03:44:17Z,42.805,6.029,13.2964,4.59963,2469.797,2019-11-13T05:44:45Z
2019-11-13T03:47:21Z,42.805,6.029,13.2962,4.59963,2469.773,2019-11-13T05:47:48Z
2019-11-13T03:50:24Z,42.805,6.029,13.2962,4.59962,2469.76,2019-11-13T05:50:51Z
2019-11-13T03:53:27Z,42.805,6.029,13.2964,4.59963,2469.821,2019-11-13T05:53:55Z
2019-11-13T03:56:30Z,42.805,6.029,13.2963,4.59964,2469.783,2019-11-13T05:56:58Z
2019-11-13T03:59:34Z,42.805,6.029,13.2964,4.59963,2469.806,2019-11-13T06:00:01Z
2019-11-13T04:02:37Z,42.805,6.029,13.2967,4.59963,2469.783,2019-11-13T06:03:04Z
2019-11-13T04:05:40Z,42.805,6.029,13.2961,4.59964,2469.821,2019-11-13T06:06:08Z
2019-11-13T04:08:43Z,42.805,6.029,13.2964,4.59964,2469.806,2019-11-13T06:09:11Z
2019-11-13T04:11:46Z,42.805,6.029,13.2963,4.59963,2469.797,2019-11-13T06:12:14Z
2019-11-13T04:14:50Z,42.805,6.029,13.2962,4.59962,2469.797,2019-11-13T06:15:17Z
2019-11-13T04:17:53Z,42.805,6.029,13.2963,4.59962,2469.844,2019-11-13T06:18:20Z
2019-11-13T04:20:56Z,42.805,6.029,13.2964,4.59962,2469.844,2019-11-13T06:21:24Z
2019-11-13T04:23:59Z,42.805,6.029,13.2962,4.59962,2469.83,2019-11-13T06:24:27Z
2019-11-13T04:27:03Z,42.805,6.029,13.2965,4.59963,2469.83,2019-11-13T06:27:30Z
2019-11-13T04:30:06Z,42.805,6.029,13.2962,4.59964,2469.834,2019-11-13T06:30:33Z
2019-11-13T04:33:09Z,42.805,6.029,13.2964,4.59963,2469.844,2019-11-13T06:33:37Z
2019-11-13T04:36:12Z,42.805,6.029,13.2960,4.59964,2469.844,2019-11-13T06:36:40Z
2019-11-13T04:39:16Z,42.805,6.029,13.2962,4.59964,2469.853,2019-11-13T06:39:43Z
2019-11-13T04:42:19Z,42.805,6.029,13.2964,4.59964,2469.853,2019-11-13T06:42:46Z
2019-11-13T04:45:22Z,42.805,6.029,13.2967,4.59964,2469.853,2019-11-13T06:45:49Z
2019-11-13T04:48:25Z,42.805,6.029,13.2964,4.59966,2469.853,2019-11-13T06:48:53Z
2019-11-13T04:51:28Z,42.805,6.029,13.2964,4.59962,2469.867,2019-11-13T06:51:56Z
2019-11-13T04:54:32Z,42.805,6.029,13.2965,4.59962,2469.853,2019-11-13T06:54:59Z
2019-11-13T04:57:35Z,42.805,6.029,13.2967,4.59963,2469.867,2019-11-13T06:58:03Z
2019-11-13T05:00:38Z,42.805,6.029,13.2964,4.59963,2469.853,2019-11-13T07:01:06Z
2019-11-13T05:03:41Z,42.805,6.029,13.2963,4.59962,2469.89,2019-11-13T07:04:09Z
2019-11-13T05:06:45Z,42.805,6.029,13.2959,4.59963,2469.876,2019-11-13T07:07:12Z
2019-11-13T05:09:48Z,42.805,6.029,13.2962,4.59964,2469.867,2019-11-13T07:10:15Z
2019-11-13T05:12:51Z,42.805,6.029,13.2962,4.59964,2469.867,2019-11-13T07:13:19Z
2019-11-13T05:15:54Z,42.805,6.029,13.2964,4.59964,2469.89,2019-11-13T07:16:22Z
2019-11-13T05:18:57Z,42.805,6.029,13.2962,4.59966,2469.89,2019-11-13T07:19:25Z
2019-11-13T05:22:01Z,42.805,6.029,13.2964,4.59964,2469.876,2019-11-13T07:22:28Z
2019-11-13T05:25:04Z,42.805,6.029,13.2963,4.59966,2469.876,2019-11-13T07:25:32Z
2019-11-13T05:28:07Z,42.805,6.029,13.2964,4.59962,2469.9,2019-11-13T07:28:35Z
2019-11-13T05:31:10Z,42.805,6.029,13.2964,4.59965,2469.876,2019-11-13T07:31:38Z
2019-11-13T05:34:14Z,42.805,6.029,13.2962,4.59964,2469.9,2019-11-13T07:34:41Z
2019-11-13T05:37:17Z,42.805,6.029,13.2966,4.59966,2469.923,2019-11-13T07:37:45Z
2019-11-13T05:40:20Z,42.805,6.029,13.2967,4.59968,2469.9,2019-11-13T07:40:48Z
2019-11-13T05:43:23Z,42.805,6.029,13.2961,4.59967,2469.914,2019-11-13T07:43:51Z
2019-11-13T05:46:27Z,42.805,6.029,13.2963,4.59969,2469.923,2019-11-13T07:46:54Z
2019-11-13T05:49:30Z,42.805,6.029,13.2965,4.59966,2469.9,2019-11-13T07:49:58Z
2019-11-13T05:52:33Z,42.805,6.029,13.2961,4.59966,2469.89,2019-11-13T07:53:01Z
2019-11-13T05:55:36Z,42.805,6.029,13.2966,4.59964,2469.9,2019-11-13T07:56:04Z
2019-11-13T05:58:40Z,42.805,6.029,13.2963,4.59972,2469.923,2019-11-13T07:59:07Z
2019-11-13T06:01:43Z,42.805,6.029,13.2962,4.59966,2469.937,2019-11-13T08:02:10Z
2019-11-13T06:04:46Z,42.805,6.029,13.2966,4.59967,2469.96,2019-11-13T08:05:14Z
2019-11-13T06:07:49Z,42.805,6.029,13.2968,4.59966,2469.947,2019-11-13T08:08:17Z
2019-11-13T06:10:53Z,42.805,6.029,13.2965,4.59974,2469.96,2019-11-13T08:11:20Z
2019-11-13T06:13:56Z,42.805,6.029,13.2964,4.59967,2469.923,2019-11-13T08:14:23Z
2019-11-13T06:16:59Z,42.805,6.029,13.2963,4.59968,2469.923,2019-11-13T08:17:27Z
2019-11-13T06:20:02Z,42.805,6.029,13.2966,4.59967,2469.914,2019-11-13T08:20:30Z
2019-11-13T06:23:05Z,42.805,6.029,13.2964,4.59966,2469.923,2019-11-13T08:23:33Z
2019-11-13T06:26:09Z,42.805,6.029,13.2961,4.59966,2469.96,2019-11-13T08:26:36Z
2019-11-13T06:29:12Z,42.805,6.029,13.2966,4.59965,2469.96,2019-11-13T08:29:39Z
2019-11-13T06:32:15Z,42.805,6.029,13.2966,4.59966,2469.947,2019-11-13T08:32:43Z
2019-11-13T06:35:18Z,42.805,6.029,13.2964,4.59966,2469.984,2019-11-13T08:35:46Z
2019-11-13T06:38:22Z,42.805,6.029,13.2965,4.59964,2470.007,2019-11-13T08:38:49Z
2019-11-13T06:41:25Z,42.805,6.029,13.2963,4.59965,2469.97,2019-11-13T08:41:53Z
2019-11-13T06:44:28Z,42.805,6.029,13.2960,4.59968,2469.947,2019-11-13T08:44:56Z
2019-11-13T06:47:31Z,42.805,6.029,13.2963,4.59972,2470.007,2019-11-13T08:47:59Z
2019-11-13T06:50:35Z,42.805,6.029,13.2966,4.59969,2469.984,2019-11-13T08:51:02Z
2019-11-13T06:53:38Z,42.805,6.029,13.2963,4.59967,2469.947,2019-11-13T08:54:05Z
2019-11-13T06:56:41Z,42.805,6.029,13.2964,4.59965,2469.97,2019-11-13T08:57:09Z
2019-11-13T06:59:45Z,42.805,6.029,13.2968,4.59969,2469.97,2019-11-13T09:00:12Z
2019-11-13T07:02:48Z,42.805,6.029,13.2964,4.59969,2469.993,2019-11-13T09:03:15Z
2019-11-13T07:05:51Z,42.805,6.029,13.2964,4.59973,2469.96,2019-11-13T09:06:19Z
2019-11-13T07:08:54Z,42.805,6.029,13.2963,4.59970,2469.993,2019-11-13T09:09:22Z
2019-11-13T07:11:57Z,42.805,6.029,13.2968,4.59965,2469.97,2019-11-13T09:12:25Z
2019-11-13T07:15:00Z,42.805,6.029,13.2962,4.59976,2469.993,2019-11-13T09:15:28Z
2019-11-13T07:18:04Z,42.805,6.029,13.2969,4.59975,2469.993,2019-11-13T09:18:31Z
2019-11-13T07:21:07Z,42.805,6.029,13.2963,4.59973,2469.993,2019-11-13T09:21:35Z
2019-11-13T07:24:10Z,42.805,6.029,13.2966,4.59967,2469.993,2019-11-13T09:24:38Z
2019-11-13T07:27:13Z,42.805,6.029,13.2964,4.59968,2469.993,2019-11-13T09:27:41Z
2019-11-13T07:30:17Z,42.805,6.029,13.2963,4.59968,2469.96,2019-11-13T09:30:44Z
2019-11-13T07:33:20Z,42.805,6.029,13.2961,4.59969,2469.993,2019-11-13T09:33:47Z
2019-11-13T07:36:23Z,42.805,6.029,13.2965,4.59968,2469.993,2019-11-13T09:36:50Z
2019-11-13T07:39:26Z,42.805,6.029,13.2963,4.59973,2469.993,2019-11-13T09:39:54Z
2019-11-13T07:42:29Z,42.805,6.029,13.2968,4.59976,2469.97,2019-11-13T09:42:57Z
2019-11-13T07:45:33Z,42.805,6.029,13.2969,4.59973,2470.007,2019-11-13T09:46:00Z
2019-11-13T07:48:36Z,42.805,6.029,13.2967,4.59980,2469.993,2019-11-13T09:49:03Z
2019-11-13T07:51:39Z,42.805,6.029,13.2965,4.59984,2469.97,2019-11-13T09:52:07Z
2019-11-13T07:54:42Z,42.805,6.029,13.2967,4.59973,2470.03,2019-11-13T09:55:10Z
2019-11-13T07:57:46Z,42.805,6.029,13.2962,4.59966,2469.993,2019-11-13T09:58:13Z
2019-11-13T08:00:49Z,42.805,6.029,13.2966,4.59967,2470.017,2019-11-13T10:01:16Z
2019-11-13T08:03:52Z,42.805,6.029,13.2967,4.59971,2469.97,2019-11-13T10:04:20Z
2019-11-13T08:06:55Z,42.805,6.029,13.2967,4.59981,2470.03,2019-11-13T10:07:23Z
2019-11-13T08:09:58Z,42.805,6.029,13.2964,4.59993,2470.03,2019-11-13T10:10:26Z
2019-11-13T08:13:02Z,42.805,6.029,13.2962,4.59991,2469.984,2019-11-13T10:13:29Z
2019-11-13T08:16:05Z,42.805,6.029,13.2968,4.59973,2469.984,2019-11-13T10:16:33Z
2019-11-13T08:19:08Z,42.805,6.029,13.2990,4.59983,2470.03,2019-11-13T10:19:36Z
2019-11-13T08:22:11Z,42.805,6.029,13.2962,4.60037,2469.984,2019-11-13T10:22:39Z
2019-11-13T08:25:14Z,42.805,6.029,13.2964,4.60008,2469.993,2019-11-13T10:25:42Z
2019-11-13T08:28:18Z,42.805,6.029,13.2968,4.60008,2469.984,2019-11-13T10:28:45Z
2019-11-13T08:31:21Z,42.805,6.029,13.2967,4.60046,2469.993,2019-11-13T10:31:48Z
2019-11-13T08:34:24Z,42.805,6.029,13.2965,4.60078,2469.993,2019-11-13T10:34:52Z
2019-11-13T08:37:27Z,42.805,6.029,13.2969,4.60058,2469.984,2019-11-13T10:37:55Z
2019-11-13T08:40:31Z,42.805,6.029,13.2971,4.60041,2469.984,2019-11-13T10:40:58Z
2019-11-13T08:43:34Z,42.805,6.029,13.2979,4.60026,2470.007,2019-11-13T10:44:01Z
2019-11-13T08:46:37Z,42.805,6.029,13.2987,4.60041,2469.97,2019-11-13T10:47:04Z
2019-11-13T08:49:40Z,42.805,6.029,13.3016,4.60016,2470.007,2019-11-13T10:50:08Z
2019-11-13T08:52:43Z,42.805,6.029,13.3034,4.60006,2469.984,2019-11-13T10:53:11Z
2019-11-13T08:55:46Z,42.805,6.029,13.2988,4.60009,2469.984,2019-11-13T10:56:14Z
2019-11-13T08:58:50Z,42.805,6.029,13.2993,4.60009,2469.96,2019-11-13T10:59:17Z
2019-11-13T09:01:53Z,42.805,6.029,13.3054,4.60057,2469.984,2019-11-13T11:02:21Z
2019-11-13T09:04:56Z,42.805,6.029,13.3049,4.60027,2469.97,2019-11-13T11:05:24Z
2019-11-13T09:07:59Z,42.805,6.029,13.3043,4.60006,2469.984,2019-11-13T11:08:27Z
2019-11-13T09:11:02Z,42.805,6.029,13.3022,4.60019,2470.007,2019-11-13T11:11:30Z
2019-11-13T09:14:06Z,42.805,6.029,13.3043,4.60003,2469.984,2019-11-13T11:14:33Z
2019-11-13T09:17:09Z,42.805,6.029,13.3039,4.60036,2469.97,2019-11-13T11:17:36Z
2019-11-13T09:20:12Z,42.805,6.029,13.3035,4.60001,2469.984,2019-11-13T11:20:40Z
2019-11-13T09:23:15Z,42.805,6.029,13.3019,4.59991,2469.984,2019-11-13T11:23:43Z
2019-11-13T09:26:19Z,42.805,6.029,13.3048,4.60003,2469.947,2019-11-13T11:26:46Z
2019-11-13T09:29:22Z,42.805,6.029,13.3057,4.60003,2470.007,2019-11-13T11:29:49Z
2019-11-13T09:32:25Z,42.805,6.029,13.3050,4.60004,2469.984,2019-11-13T11:32:53Z
2019-11-13T09:35:28Z,42.805,6.029,13.3066,4.60029,2469.947,2019-11-13T11:35:56Z
2019-11-13T09:38:31Z,42.805,6.029,13.3050,4.60004,2469.984,2019-11-13T11:38:59Z
2019-11-13T09:41:35Z,42.805,6.029,13.3036,4.60007,2469.96,2019-11-13T11:42:02Z
2019-11-13T09:44:38Z,42.805,6.029,13.3047,4.59996,2469.96,2019-11-13T11:45:05Z
2019-11-13T09:47:41Z,42.805,6.029,13.3039,4.59996,2469.984,2019-11-13T11:48:09Z
2019-11-13T09:50:44Z,42.805,6.029,13.3028,4.60008,2469.97,2019-11-13T11:51:12Z
2019-11-13T09:53:47Z,42.805,6.029,13.3013,4.60011,2469.984,2019-11-13T11:54:15Z
2019-11-13T09:56:51Z,42.805,6.029,13.3029,4.60017,2469.984,2019-11-13T11:57:18Z
2019-11-13T09:59:54Z,42.805,6.029,13.3006,4.60006,2469.96,2019-11-13T12:00:21Z
2019-11-13T10:02:57Z,42.805,6.029,13.3009,4.60005,2469.937,2019-11-13T12:03:25Z
2019-11-13T10:06:00Z,42.805,6.029,13.3011,4.60009,2469.937,2019-11-13T12:06:28Z
2019-11-13T10:09:03Z,42.805,6.029,13.3055,4.60003,2469.96,2019-11-13T12:09:31Z
2019-11-13T10:12:07Z,42.805,6.029,13.3011,4.60006,2469.96,2019-11-13T12:12:34Z
2019-11-13T10:15:10Z,42.805,6.029,13.3000,4.59999,2469.937,2019-11-13T12:15:37Z
2019-11-13T10:18:13Z,42.805,6.029,13.3008,4.59991,2469.923,2019-11-13T12:18:41Z
2019-11-13T10:21:16Z,42.805,6.029,13.3006,4.60008,2469.97,2019-11-13T12:21:44Z
2019-11-13T10:24:19Z,42.805,6.029,13.3010,4.59999,2469.96,2019-11-13T12:24:47Z
2019-11-13T10:27:23Z,42.805,6.029,13.3007,4.60007,2469.984,2019-11-13T12:27:50Z
2019-11-13T10:30:26Z,42.805,6.029,13.3009,4.59998,2469.96,2019-11-13T12:30:54Z
2019-11-13T10:33:29Z,42.805,6.029,13.3002,4.59995,2469.937,2019-11-13T12:33:57Z
2019-11-13T10:36:32Z,42.805,6.029,13.3019,4.60005,2469.923,2019-11-13T12:37:00Z
2019-11-13T10:39:36Z,42.805,6.029,13.3011,4.59991,2469.947,2019-11-13T12:40:03Z
2019-11-13T10:42:39Z,42.805,6.029,13.3009,4.59997,2469.914,2019-11-13T12:43:06Z
2019-11-13T10:45:42Z,42.805,6.029,13.3012,4.59997,2469.9,2019-11-13T12:46:10Z
2019-11-13T10:48:45Z,42.805,6.029,13.2997,4.60007,2469.937,2019-11-13T12:49:13Z
2019-11-13T10:51:49Z,42.805,6.029,13.3000,4.59994,2469.947,2019-11-13T12:52:16Z
2019-11-13T10:54:52Z,42.805,6.029,13.3007,4.59994,2469.923,2019-11-13T12:55:19Z
2019-11-13T10:57:55Z,42.805,6.029,13.3019,4.60016,2469.937,2019-11-13T12:58:23Z
2019-11-13T11:00:59Z,42.805,6.029,13.3009,4.59996,2469.9,2019-11-13T13:01:26Z
2019-11-13T11:04:02Z,42.805,6.029,13.3009,4.60005,2469.923,2019-11-13T13:04:29Z
2019-11-13T11:07:05Z,42.805,6.029,13.2999,4.59986,2469.96,2019-11-13T13:07:33Z
2019-11-13T11:10:08Z,42.805,6.029,13.2998,4.60017,2469.914,2019-11-13T13:10:36Z
2019-11-13T11:13:11Z,42.805,6.029,13.3000,4.60003,2469.923,2019-11-13T13:13:39Z
2019-11-13T11:16:15Z,42.805,6.029,13.3012,4.59996,2469.937,2019-11-13T13:16:42Z
2019-11-13T11:19:18Z,42.805,6.029,13.2997,4.59996,2469.9,2019-11-13T13:19:45Z
2019-11-13T11:22:21Z,42.805,6.029,13.2996,4.60000,2469.923,2019-11-13T13:22:48Z
2019-11-13T11:25:24Z,42.805,6.029,13.2996,4.59997,2469.914,2019-11-13T13:25:52Z
2019-11-13T11:28:27Z,42.805,6.029,13.2991,4.59998,2469.914,2019-11-13T13:28:55Z
2019-11-13T11:31:31Z,42.805,6.029,13.2996,4.59996,2469.9,2019-11-13T13:31:58Z
2019-11-13T11:34:34Z,42.805,6.029,13.3000,4.59991,2469.89,2019-11-13T13:35:01Z
2019-11-13T11:37:37Z,42.805,6.029,13.2998,4.59990,2469.937,2019-11-13T13:38:05Z
2019-11-13T11:40:40Z,42.805,6.029,13.3004,4.59989,2469.9,2019-11-13T13:41:08Z
2019-11-13T11:43:43Z,42.805,6.029,13.3018,4.60002,2469.914,2019-11-13T13:44:11Z
2019-11-13T11:46:47Z,42.805,6.029,13.2991,4.60026,2469.923,2019-11-13T13:47:14Z
2019-11-13T11:49:50Z,42.805,6.029,13.3009,4.59998,2469.937,2019-11-13T13:50:18Z
2019-11-13T11:52:53Z,42.805,6.029,13.2996,4.59998,2469.9,2019-11-13T13:53:21Z
2019-11-13T11:55:56Z,42.805,6.029,13.3009,4.59990,2469.937,2019-11-13T13:56:24Z
2019-11-13T11:58:59Z,42.805,6.029,13.2991,4.60003,2469.937,2019-11-13T13:59:27Z
2019-11-13T12:02:03Z,42.805,6.029,13.2991,4.60001,2469.89,2019-11-13T14:02:30Z
2019-11-13T12:05:06Z,42.805,6.029,13.3013,4.59996,2469.914,2019-11-13T14:05:33Z
2019-11-13T12:08:09Z,42.805,6.029,13.2983,4.59996,2469.923,2019-11-13T14:08:37Z
2019-11-13T12:11:12Z,42.805,6.029,13.2995,4.60009,2469.914,2019-11-13T14:11:40Z
2019-11-13T12:14:16Z,42.805,6.029,13.2998,4.60003,2469.9,2019-11-13T14:14:43Z
2019-11-13T12:17:19Z,42.805,6.029,13.2987,4.59995,2469.937,2019-11-13T14:17:46Z
2019-11-13T12:20:22Z,42.805,6.029,13.2998,4.60000,2469.914,2019-11-13T14:20:50Z
2019-11-13T12:23:25Z,42.805,6.029,13.2984,4.59999,2469.923,2019-11-13T14:23:53Z
2019-11-13T12:26:28Z,42.805,6.029,13.3004,4.59989,2469.9,2019-11-13T14:26:56Z
2019-11-13T12:29:32Z,42.805,6.029,13.2984,4.60003,2469.9,2019-11-13T14:29:59Z
2019-11-13T12:32:35Z,42.805,6.029,13.2996,4.59989,2469.914,2019-11-13T14:33:02Z
2019-11-13T12:35:38Z,42.805,6.029,13.3002,4.59997,2469.9,2019-11-13T14:36:06Z
2019-11-13T12:38:42Z,42.805,6.029,13.3004,4.59997,2469.923,2019-11-13T14:39:09Z
2019-11-13T12:41:45Z,42.805,6.029,13.2985,4.60009,2469.947,2019-11-13T14:42:13Z
2019-11-13T12:44:48Z,42.805,6.029,13.2975,4.60006,2469.876,2019-11-13T14:45:16Z
2019-11-13T12:47:51Z,42.805,6.029,13.2988,4.59999,2469.9,2019-11-13T14:48:19Z
2019-11-13T12:50:55Z,42.805,6.029,13.2977,4.59977,2469.914,2019-11-13T14:51:22Z
2019-11-13T12:53:58Z,42.805,6.029,13.2993,4.59999,2469.9,2019-11-13T14:54:26Z
2019-11-13T12:57:02Z,42.805,6.029,13.2989,4.59993,2469.867,2019-11-13T14:57:29Z
2019-11-13T13:00:05Z,42.805,6.029,13.2995,4.60019,2469.914,2019-11-13T15:00:32Z
2019-11-13T13:03:08Z,42.805,6.029,13.3004,4.59996,2469.914,2019-11-13T15:03:36Z
2019-11-13T13:06:11Z,42.805,6.029,13.2996,4.60002,2469.89,2019-11-13T15:06:39Z
2019-11-13T13:09:14Z,42.805,6.029,13.2990,4.60007,2469.914,2019-11-13T15:09:42Z
2019-11-13T13:12:18Z,42.805,6.029,13.2989,4.59999,2469.89,2019-11-13T15:12:45Z
2019-11-13T13:15:21Z,42.805,6.029,13.2986,4.60016,2469.876,2019-11-13T15:15:48Z
2019-11-13T13:18:24Z,42.805,6.029,13.2998,4.60024,2469.876,2019-11-13T15:18:52Z
2019-11-13T13:21:27Z,42.805,6.029,13.2989,4.60011,2469.876,2019-11-13T15:21:55Z
2019-11-13T13:24:30Z,42.805,6.029,13.2998,4.60018,2469.876,2019-11-13T15:24:58Z
2019-11-13T13:27:34Z,42.805,6.029,13.2983,4.60003,2469.914,2019-11-13T15:28:01Z
2019-11-13T13:30:37Z,42.805,6.029,13.2982,4.60007,2469.876,2019-11-13T15:31:05Z
2019-11-13T13:33:40Z,42.805,6.029,13.2997,4.59992,2469.876,2019-11-13T15:34:08Z
2019-11-13T13:36:43Z,42.805,6.029,13.2990,4.59986,2469.914,2019-11-13T15:37:11Z
2019-11-13T13:39:46Z,42.805,6.029,13.2971,4.59998,2469.9,2019-11-13T15:40:14Z
2019-11-13T13:42:50Z,42.805,6.029,13.2980,4.60000,2469.89,2019-11-13T15:43:17Z
2019-11-13T13:45:53Z,42.805,6.029,13.2967,4.59991,2469.9,2019-11-13T15:46:21Z
2019-11-13T13:48:56Z,42.805,6.029,13.2974,4.59991,2469.876,2019-11-13T15:49:24Z
2019-11-13T13:52:00Z,42.805,6.029,13.3009,4.59995,2469.937,2019-11-13T15:52:27Z
2019-11-13T13:55:03Z,42.805,6.029,13.2976,4.60002,2469.89,2019-11-13T15:55:30Z
2019-11-13T13:58:06Z,42.805,6.029,13.2974,4.59994,2469.923,2019-11-13T15:58:34Z
2019-11-13T14:01:09Z,42.805,6.029,13.2970,4.60001,2469.89,2019-11-13T16:01:37Z
2019-11-13T14:04:12Z,42.805,6.029,13.2976,4.59996,2469.89,2019-11-13T16:04:40Z
2019-11-13T14:07:16Z,42.805,6.029,13.2973,4.60003,2469.89,2019-11-13T16:07:43Z
2019-11-13T14:10:19Z,42.805,6.029,13.2985,4.60009,2469.853,2019-11-13T16:10:46Z
2019-11-13T14:13:22Z,42.805,6.029,13.2983,4.60001,2469.89,2019-11-13T16:13:50Z
2019-11-13T14:16:25Z,42.805,6.029,13.2972,4.59994,2469.937,2019-11-13T16:16:53Z
2019-11-13T14:19:29Z,42.805,6.029,13.2967,4.59981,2469.89,2019-11-13T16:19:56Z
2019-11-13T14:22:32Z,42.805,6.029,13.2967,4.59981,2469.876,2019-11-13T16:22:59Z
2019-11-13T14:25:35Z,42.805,6.029,13.2968,4.59997,2469.914,2019-11-13T16:26:03Z
2019-11-13T14:28:38Z,42.805,6.029,13.2968,4.59981,2469.937,2019-11-13T16:29:06Z
2019-11-13T14:31:41Z,42.805,6.029,13.2962,4.59971,2469.923,2019-11-13T16:32:09Z
2019-11-13T14:34:45Z,42.805,6.029,13.2966,4.59980,2469.876,2019-11-13T16:35:12Z
2019-11-13T14:37:48Z,42.805,6.029,13.2968,4.60001,2469.853,2019-11-13T16:38:16Z
2019-11-13T14:40:51Z,42.805,6.029,13.2966,4.59973,2469.914,2019-11-13T16:41:19Z
2019-11-13T14:43:55Z,42.805,6.029,13.2967,4.59972,2469.9,2019-11-13T16:44:22Z
2019-11-13T14:46:58Z,42.805,6.029,13.2967,4.59978,2469.9,2019-11-13T16:47:25Z
2019-11-13T14:50:01Z,42.805,6.029,13.2967,4.59968,2469.9,2019-11-13T16:50:29Z
2019-11-13T14:53:04Z,42.805,6.029,13.2964,4.59969,2469.9,2019-11-13T16:53:32Z
2019-11-13T14:56:07Z,42.805,6.029,13.2964,4.59968,2469.937,2019-11-13T16:56:35Z
2019-11-13T14:59:11Z,42.805,6.029,13.2962,4.59967,2469.937,2019-11-13T16:59:38Z
2019-11-13T15:02:14Z,42.805,6.029,13.2967,4.59968,2469.937,2019-11-13T17:02:41Z